This is the latest recevied weather packets stored in our database for station/object VE7GEL. If no packets are shown the sender has not sent any weather packets the latest 10 day(s).
| Time | Temp. | Humidity | Pressure | Rain* | Wind** | Luminosity | Snow |
|---|---|---|---|---|---|---|---|
| 1777395667 | 11.11° C | 89% | 1021.4 hPa | 0 mm | - | 100 W/m² | - |
| 1777394769 | 10.56° C | 90% | 1021.2 hPa | 0 mm | - | 60 W/m² | - |
| 1777394703 | 10.56° C | 90% | 1021.5 hPa | 0 mm | - | 62 W/m² | - |
| 1777393866 | 10.56° C | 91% | 1021.2 hPa | 0 mm | - | 75 W/m² | - |
| 1777392965 | 10.56° C | 92% | 1021.2 hPa | 0 mm | - | 75 W/m² | - |
| 1777392062 | 10.56° C | 93% | 1021.1 hPa | 0 mm | - | 48 W/m² | - |
| 1777391163 | 10.56° C | 94% | 1021.1 hPa | 0 mm | - | 43 W/m² | - |
| 1777391102 | 10.56° C | 94% | 1021.4 hPa | 0 mm | - | 44 W/m² | - |
| 1777390264 | 10.56° C | 95% | 1020.9 hPa | 0 mm | - | 39 W/m² | - |
| 1777389361 | 10° C | 96% | 1020.9 hPa | 0 mm | - | 40 W/m² | - |
| 1777388458 | 10° C | 96% | 1020.9 hPa | 0 mm | - | 28 W/m² | - |
| 1777387558 | 10° C | 96% | 1020.6 hPa | 0 mm | - | 21 W/m² | - |
| 1777386655 | 10.56° C | 96% | 1020.5 hPa | 0 mm | - | 17 W/m² | - |
| 1777385756 | 10.56° C | 94% | 1020.3 hPa | 0 mm | - | 14 W/m² | - |
| 1777385702 | 10.56° C | 94% | 1020.5 hPa | 0 mm | - | 14 W/m² | - |
| 1777384857 | 10.56° C | 92% | 1019.9 hPa | 0 mm | - | 11 W/m² | - |
| 1777383956 | 10.56° C | 92% | 1019.8 hPa | 0 mm | - | 6 W/m² | - |
| 1777383055 | 10.56° C | 91% | 1019.6 hPa | 0 mm | - | 3 W/m² | - |
| 1777382150 | 11.11° C | 89% | 1019.5 hPa | 0 mm | - | 2 W/m² | - |
| 1777382102 | 11.11° C | 89% | 1019.8 hPa | 0 mm | - | 2 W/m² | - |
| 1777381250 | 11.11° C | 88% | 1019.4 hPa | 0 mm | - | 0 W/m² | - |
| 1777380350 | 11.11° C | 88% | 1019.4 hPa | 0 mm | - | 0 W/m² | - |
| 1777380303 | 11.11° C | 88% | 1019.7 hPa | 0 mm | - | 0 W/m² | - |
| 1777379450 | 11.11° C | 87% | 1019.2 hPa | 0 mm | - | 0 W/m² | - |
| 1777378548 | 11.11° C | 85% | 1019.1 hPa | 0 mm | - | 0 W/m² | - |
* Rain latest hour (hover to see other rain measurements)
** Current wind speed in m/s (hover to see current wind gust speed)